Regional Weather Roundup
Issued by NWS Newport/Morehead, NC

Home | Current Version | Previous Version | Text Only | Print | Product List | Glossary On
Versions: 1 2 3 4 5 6 7 8 9 10 11 12 13 14 15 16 17 18 19 20 21 22 23 24 25 26 27 28 29 30 31 32 33 34 35 36 37 38 39 40 41 42 43 44 45 46 47 48 49 50
000
ASUS42 KMHX 031925
RWRMHX
WEATHER ROUNDUP FOR EASTERN NORTH CAROLINA
NATIONAL WEATHER SERVICE NEWPORT/MOREHEAD CITY NC
300 PM EDT THU SEP 03 2015

NOTE: "FAIR" INDICATES FEW OR NO CLOUDS BELOW 12,000 FEET
WITH NO SIGNIFICANT WEATHER AND/OR OBSTRUCTIONS TO VISIBILITY

NCZ015>017-031-032-045>047-102-103-032000-
NORTH COAST

CITY           SKY/WX    TMP DP  RH WIND       PRES   REMARKS
EDENTON        SUNNY     86  68  55 W5        29.89F
ELIZABETH CITY MOSUNNY   88  72  58 E5        29.88F
KITTY HAWK     CLEAR     91  71  51 CALM      29.88F
MANTEO         SUNNY     85  68  55 W3        29.90F

$$

NCZ045>047-081-094-103-104-032000-
CENTRAL COAST

CITY           SKY/WX    TMP DP  RH WIND       PRES   REMARKS
FRISCO         SUNNY     82  70  66 VRB6      29.90F
SWANQUARTER      N/A     86 N/A N/A SW7       29.85F

$$

NCZ095-097-098-100-101-032000-
SOUTHERN COAST

CITY           SKY/WX    TMP DP  RH WIND       PRES   REMARKS
BEAUFORT       SUNNY     83  74  74 SW8       29.90F
CEDAR ISLAND     N/A     82 N/A N/A NE3       29.94F
JACKSONVILLE   MOSUNNY   89  70  53 VRB5      29.89F
PINEY ISLAND   PTCLDY   N/A N/A N/A E7        29.90F
WILMINGTON     MOSUNNY   85  71  63 S8        29.91S


$$

NCZ011>013-027>030-043-044-078>080-089-090>093-098-032000-
COASTAL PLAIN

CITY           SKY/WX    TMP DP  RH WIND       PRES   REMARKS
AHOSKIE        SUNNY     87  69  55 N3        29.89F
CLINTON        MOSUNNY   90  71  53 N6        29.90F
ELIZABETHTOWN  SUNNY     91  68  46 W5        29.90F
GOLDSBORO      MOSUNNY   89  68  51 NW7       29.90F
GREENVILLE     MOSUNNY   86  70  58 CALM      29.92F
HAVELOCK       MOSUNNY   89  71  55 VRB6      29.91F
KENANSVILLE      N/A     87  69  54 CALM      29.92F
KINSTON        MOSUNNY   88  70  55 N5        29.91F
NEW BERN       MOSUNNY   87  71  58 NE6       29.91F
RICHLANDS      SUNNY     88  70  55 CALM      29.90F
ROCKY MOUNT    PTSUNNY   89  68  49 VRB3      29.91F
WASHINGTON     MOSUNNY   84  71  63 CALM      29.90F
WHITEVILLE     MOSUNNY   90  73  57 N3        29.90F

$$

AMZ130-135-150-152-154-156-158-170-250-252-270-ANZ085-086-088-633-658-670-032000-
MARINE OBSERVATIONS

STATION/POSITION TIME  TEMP    WIND        PRES    WAVE   SWELL
                       AIR SEA DIR/SP/G            HT/PER HT/PER
                 (UTC) (F)     (DEG/KT/KT) (MB)    (FT/S) (FT/S)
CHESAPEAKE LIGHT 1900   84     300/  3/  4 1012.7
64 E VA BEACH    1850   79 80  280/  6/  6 1011.7    2/ 4   2/13
DUCK             1900   89 81  100/  4/  5 1011.3
2 E DUCK         1811      82                N/A     1/13
OREGON INLET     1900   83 82  190/  5/  6 1012.1
13E OREGON INLT  1900      82                N/A     2/13
HATTERAS CG      1900   82 83  290/  3/  5 1012.4
DIAMOND BUOY     1850   80 86  310/  4/  6 1012.8    1/13   2/13
CAPE LOOKOUT     1900   82     220/  7/  9 1012.4
BEAUFORT LAB     1900   82 81  190/  8/  9 1011.9
30 SE NEW RVR IN 1808   82 82  200/  4/  6 1013.7
30 SE NEW RVR IN 1825      83                N/A     1/ 8
27 SE WRIGHTSVLE 1900   72 82  210/ 10/ 12   N/A
5 SE WRIGHTSVLE  1808   79 83  220/ 19/ 25 1013.4
225 S CAPE HAT   1850   84 85  290/  8/ 10 1013.5    2/12   2/12
41 SE CHARLESTON 1850   81 84  180/  4/  6 1013.5    2/ 8   2/ 8

$$



USA.gov is the U.S. government's official web portal to all federal, state and local government web resources and services.